Location: Orange
(33.2833°S, 149.1000°E)
Time: 00:00:31
(UTC+11:00)

Hubble Space Telescope - Visible Passes

Search period start: 10 December 2023 00:00
Search period end: 20 December 2023 00:00
Orbit: 518 x 522 km, 28.5° (Epoch: 08 December)

Date Brightness Start Highest point End Pass type
(mag) Time Alt. Az. Time Alt. Az. Time Alt. Az.
10 Dec 2.8 03:53:56 15° NNE 03:53:56 15° NNE 03:54:56 10° NE visible
12 Dec 3.0 21:57:32 10° NW 21:57:59 12° NNW 21:57:59 12° NNW visible
13 Dec 2.0 21:40:52 10° NW 21:43:22 23° N 21:43:22 23° N visible
14 Dec 1.7 21:24:14 10° NW 21:27:42 28° NNE 21:28:30 26° NE visible
15 Dec 1.6 21:07:36 10° NW 21:11:11 30° NNE 21:13:23 18° ENE visible
15 Dec 3.2 22:47:49 10° WNW 22:48:22 13° WNW 22:48:22 13° WNW visible
16 Dec 1.5 20:51:01 10° NW 20:54:40 33° N 20:58:05 11° ENE visible
16 Dec 2.5 22:31:19 10° WNW 22:33:03 23° WNW 22:33:03 23° WNW visible
17 Dec 1.5 20:34:25 10° WNW 20:38:08 35° N 20:41:52 10° ENE visible
17 Dec 1.7 22:14:49 10° WNW 22:17:36 33° NW 22:17:36 33° NW visible
18 Dec 1.3 21:58:19 10° WNW 22:02:01 39° N 22:02:01 39° N visible
19 Dec 1.4 21:41:49 10° WNW 21:45:35 37° N 21:46:21 34° NNE visible
